Wind_Speed
20 18 11 12 11 6 8 7 7 8 6 5 6 9 7 8 11 14 17 17 17 20 18 16 16 17 19 16 16 16 15 13 13 12 9 7 5 8 11 12 11 11 12 12
18 14 16 13 9 9 6 6 2 2 5 3 2 1 4 4 5 8 11 15 16 19 19 18 16 13 11 11 12 12 10 9 10 9 8 8 9 14 17 17 15 15 12 15
22 16 14 12 13 10 5 9 8 9 6 4 4 3 4 3 1 5 8 11 13 15 16 17 18 16 12 8 6 5 6 7 8 9 9 12 15 16 17 15 14 16 15 16
16 6 3 0 4 6 3 3 3 4 7 8 5 4 4 5 4 1 4 7 8 8 9 9 11 12 11 10 7 4 2 5 7 9 11 12 13 12 10 12 13 13 14 15
7 4 3 4 8 5 6 3 2 2 4 6 5 3 4 6 5 3 2 4 5 8 9 9 8 8 8 7 5 4 3 2 3 6 9 11 12 12 13 13 16 13 13 15
8 3 3 4 5 4 1 3 5 5 8 3 5 8 1 4 2 1 4 2 5 8 9 9 8 8 6 4 3 4 3 2 4 6 7 9 11 10 11 13 14 14 14 14
4 1 2 4 7 8 8 3 4 3 2 5 3 3 3 2 5 6 4 1 6 7 7 8 10 13 13 14 11 8 7 7 6 7 9 10 11 12 11 11 11 11 14 13
7 2 3 4 5 2 6 5 3 3 4 4 2 2 5 4 11 8 4 2 3 8 8 4 5 9 13 17 15 13 10 10 12 13 13 13 14 14 15 13 11 13 13 12
2 5 11 11 7 4 7 3 12 2 3 3 6 6 7 6 15 16 10 6 4 7 8 8 11 11 10 10 11 15 15 14 16 16 17 19 17 16 15 15 14 11 11 13
9 3 11 18 15 10 5 7 2 5 7 6 6 8 7 6 9 19 18 8 13 8 10 13 12 16 10 10 10 11 15 17 20 19 22 24 24 20 19 17 15 16 15 14
9 9 9 10 12 14 8 5 7 6 7 7 4 10 14 13 11 13 11 8 8 9 12 17 12 16 20 14 13 13 14 18 20 23 21 28 28 25 21 20 18 17 17 17
11 9 10 16 16 10 10 12 8 7 11 7 11 8 15 17 16 14 12 11 11 15 17 16 14 15 18 16 14 11 13 15 21 23 29 33 26 25 22 18 16 17 20 19
11 8 9 13 10 7 9 6 6 7 10 10 7 12 17 19 20 17 18 17 17 16 18 21 15 16 18 16 13 14 14 20 22 24 22 21 21 21 20 18 19 21 22 23
12 12 13 9 13 13 12 12 10 10 9 11 11 14 18 17 20 20 19 19 19 19 21 26 20 19 18 17 16 15 18 19 15 17 18 15 18 21 22 23 25 28 28 28
13 11 16 20 16 16 17 14 12 13 15 15 12 15 12 12 13 16 17 19 23 24 26 28 22 20 19 17 19 21 18 18 15 16 16 10 9 18 26 30 28 33 33 34
16 16 13 16 20 17 17 14 13 15 14 14 15 17 19 18 17 20 22 25 27 27 24 24 20 19 19 19 19 19 19 18 19 19 20 21 23 25 20 28 28 29 34 29
18 18 17 16 20 19 17 16 17 16 15 15 16 19 22 22 23 25 25 23 23 22 23 21 19 18 19 20 19 21 22 22 22 23 23 23 23 24 23 22 22 20 25 28
21 20 21 20 21 21 18 15 18 19 17 17 19 19 20 21 22 22 20 20 22 22 22 21 21 21 21 22 23 23 23 23 24 23 21 20 22 22 23 24 25 29 28 28
26 25 25 24 23 22 17 18 19 18 19 18 19 19 19 20 21 21 21 21 20 20 22 24 23 21 22 23 24 23 22 20 19 20 22 22 23 24 25 26 29 31 33 33
31 29 29 29 26 25 21 19 20 19 18 20 19 19 19 19 21 24 23 23 23 23 23 21 21 22 23 24 23 21 18 18 19 20 22 24 23 24 28 30 31 32 31 31
34 34 33 32 31 29 22 23 20 19 21 18 19 19 20 23 26 24 26 26 26 24 22 21 22 24 24 23 22 21 21 20 21 23 25 25 24 27 28 26 26 30 31 28
41 36 37 35 35 32 24 25 21 20 23 19 21 21 23 24 26 26 26 27 26 22 19 22 24 23 23 23 24 23 24 24 25 26 27 26 25 25 26 25 28 31 31 31
47 39 38 40 34 33 27 26 25 24 25 23 23 26 26 26 28 26 25 24 23 20 21 22 23 23 25 25 25 27 27 27 27 28 28 28 27 26 25 27 29 30 33 34
46 43 40 42 32 32 30 29 26 26 26 26 24 26 28 29 27 26 26 23 21 21 22 24 24 24 25 26 27 27 26 27 29 31 31 30 27 27 29 29 29 29 32 35
49 49 41 42 38 35 34 33 31 29 28 28 27 27 29 31 30 30 29 25 22 22 24 26 27 27 26 27 26 25 26 27 27 28 29 30 31 31 31 31 31 31 32 32
51 48 45 39 41 42 38 36 34 32 30 29 28 29 31 32 31 32 32 28 24 25 27 28 28 28 26 26 26 26 26 27 26 27 27 29 30 31 30 29 29 30 32 36
Wind_Direction
177 189 184 185 191 180 135 129 132 122 119 79 57 32 20 34 54 60 58 62 65 69 68 70 76 78 81 105 115 122 135 158 181 182 180 187 219 246 251 249 248 252 247 247
179 200 205 210 211 211 245 176 128 180 161 144 107 50 12 3 47 53 63 63 58 67 68 69 72 78 91 108 144 151 164 187 200 201 209 233 248 252 258 265 272 264 257 247
184 187 206 214 216 225 262 253 238 228 220 230 329 300 309 321 197 51 50 61 65 65 71 73 73 69 74 88 117 166 205 230 252 252 245 244 249 253 256 262 261 260 251 246
186 168 167 37 178 220 342 291 341 263 223 232 218 306 276 308 309 256 38 39 54 55 67 70 73 67 66 66 66 92 165 222 232 238 245 248 250 253 257 260 260 259 250 244
177 141 85 340 337 319 269 336 81 82 167 176 217 129 233 301 340 313 48 56 31 32 28 29 45 61 62 52 46 44 28 316 263 254 251 259 261 268 273 267 264 256 250 252
127 89 328 321 332 352 273 137 38 109 135 121 160 159 230 302 291 238 145 67 36 22 14 13 357 356 356 12 7 331 304 295 295 285 278 275 280 276 280 279 275 258 248 255
131 87 99 346 36 8 153 47 19 47 109 194 122 132 27 326 178 201 163 104 15 11 2 340 329 324 318 320 314 315 305 291 289 286 274 270 274 276 268 276 275 253 249 255
132 355 215 246 335 259 221 165 158 157 171 224 139 153 276 262 198 193 167 52 47 332 320 360 330 320 310 303 305 305 290 303 283 271 272 275 272 274 276 279 282 279 271 265
150 268 238 250 263 295 281 215 220 190 229 139 219 273 269 274 207 212 207 210 284 320 352 326 315 305 286 306 323 307 289 280 282 294 293 275 272 264 264 276 279 274 276 291
243 268 286 258 259 273 239 224 215 271 241 240 252 237 244 234 226 219 216 233 281 268 318 328 326 303 297 296 280 281 286 280 280 280 282 282 263 262 254 250 260 266 269 280
249 250 281 298 261 241 245 248 219 228 236 215 224 229 239 249 258 247 265 296 265 269 290 310 304 300 304 302 286 267 260 273 279 286 284 290 257 248 250 249 252 262 268 273
238 246 275 262 277 276 255 235 226 234 291 240 193 248 249 240 258 259 265 279 290 297 303 315 310 303 294 299 302 288 273 288 295 291 281 287 252 242 245 248 255 261 264 267
255 270 284 303 293 269 249 220 214 237 228 247 189 256 259 239 257 257 269 278 283 292 306 306 298 297 290 291 287 287 290 298 294 287 297 302 238 244 256 263 264 264 268 274
266 267 266 257 240 245 256 246 221 207 228 242 233 244 248 234 244 255 263 274 282 288 297 297 295 287 282 288 282 280 294 302 294 287 296 286 246 255 268 267 267 269 268 268
258 259 266 266 260 260 256 256 254 238 230 234 221 248 242 240 246 249 261 279 280 284 288 287 287 285 289 289 286 290 298 302 302 290 294 301 277 261 269 271 273 270 273 278
256 259 267 273 277 272 268 265 262 256 253 251 246 238 247 247 253 257 263 270 276 277 275 277 284 291 290 289 287 288 289 288 287 286 276 274 282 278 284 266 273 265 265 268
267 268 266 259 268 273 281 281 268 261 255 259 262 253 246 241 242 246 252 258 263 269 274 282 288 285 286 283 281 279 280 286 286 281 280 282 285 289 292 295 282 274 271 270
264 268 272 270 268 266 271 275 270 268 264 266 263 258 247 246 246 248 252 259 267 271 276 285 287 288 282 274 272 273 275 276 275 278 283 287 287 283 280 278 267 270 277 274
255 260 268 269 270 268 271 264 267 271 266 264 262 254 249 248 245 248 256 262 268 275 279 282 282 277 271 270 272 272 270 263 265 275 285 289 286 284 281 277 274 273 274 275
256 257 259 266 267 268 267 267 267 266 264 254 258 253 248 250 249 250 258 265 270 272 276 276 276 273 275 277 280 279 270 273 276 283 289 290 286 286 285 284 284 281 276 271
253 254 257 262 264 269 263 265 259 266 256 257 256 253 250 249 252 263 263 267 271 276 279 277 272 278 285 290 289 281 278 282 287 288 292 291 291 292 291 289 285 284 285 280
256 253 256 254 259 261 260 259 262 258 263 263 262 255 253 256 257 259 263 267 274 278 274 269 274 282 288 293 292 287 281 277 282 288 294 297 295 292 287 285 286 282 279 280
251 255 258 258 259 258 259 255 257 260 267 264 259 260 257 257 259 261 263 267 274 272 270 272 278 288 290 290 291 289 286 284 285 289 294 297 294 292 288 282 281 277 273 272
252 247 248 256 254 257 255 253 253 253 257 263 261 255 257 264 263 261 263 267 271 271 274 281 285 290 291 291 291 287 282 282 287 292 296 297 295 294 291 289 286 281 273 270
249 252 250 252 252 253 251 254 253 251 253 258 260 256 251 256 262 265 266 270 268 269 277 282 286 290 295 296 292 285 280 283 287 293 297 300 300 300 298 295 292 290 285 280
249 250 249 250 248 248 245 245 249 251 253 254 255 256 256 255 259 261 265 270 269 272 275 282 290 294 297 302 297 290 285 289 293 294 296 296 295 294 293 294 294 292 288 288
Height
5911 5913 5916 5916 5917 5918 5919 5918 5918 5918 5917 5916 5915 5914 5912 5911 5910 5909 5908 5907 5905 5903 5904 5904 5902 5902 5902 5906 5908 5909 5912 5916 5919 5921 5922 5924 5925 5926 5928 5929 5930 5932 5931 5930
5912 5913 5915 5916 5917 5918 5917 5918 5919 5918 5917 5916 5916 5915 5914 5912 5911 5911 5910 5909 5910 5907 5907 5907 5908 5907 5909 5911 5913 5915 5917 5919 5920 5921 5922 5923 5923 5924 5924 5926 5927 5928 5928 5928
5909 5912 5914 5915 5916 5917 5918 5916 5916 5916 5917 5918 5916 5917 5915 5913 5913 5912 5912 5912 5912 5912 5912 5912 5913 5913 5914 5916 5917 5918 5919 5919 5919 5919 5919 5920 5921 5921 5922 5922 5922 5923 5923 5923
5910 5912 5913 5914 5914 5915 5918 5914 5914 5914 5916 5921 5918 5921 5916 5915 5914 5914 5914 5915 5914 5913 5913 5915 5915 5916 5917 5918 5918 5918 5917 5917 5917 5917 5918 5919 5919 5920 5920 5920 5919 5919 5920 5921
5912 5912 5913 5912 5912 5912 5913 5913 5914 5914 5915 5917 5918 5922 5917 5917 5916 5916 5916 5916 5915 5914 5914 5915 5915 5915 5916 5917 5918 5917 5917 5917 5916 5916 5916 5916 5915 5917 5917 5918 5918 5918 5918 5918
5911 5912 5912 5911 5911 5911 5912 5914 5916 5916 5917 5922 5919 5921 5919 5917 5917 5916 5917 5916 5916 5916 5916 5915 5915 5915 5915 5916 5917 5916 5916 5916 5916 5915 5914 5913 5913 5913 5913 5914 5915 5916 5916 5917
5912 5912 5912 5912 5912 5913 5912 5917 5922 5922 5921 5920 5920 5921 5917 5916 5917 5917 5917 5918 5918 5917 5917 5917 5916 5915 5914 5914 5915 5916 5916 5916 5915 5914 5913 5912 5911 5911 5910 5911 5913 5913 5914 5916
5915 5914 5914 5913 5913 5914 5915 5917 5921 5922 5922 5920 5919 5921 5918 5918 5917 5917 5917 5918 5919 5919 5917 5916 5916 5915 5914 5912 5911 5912 5913 5913 5913 5912 5911 5911 5910 5911 5911 5912 5914 5915 5915 5915
5915 5915 5912 5912 5912 5913 5913 5916 5915 5919 5919 5920 5919 5919 5917 5916 5917 5917 5918 5919 5920 5919 5918 5916 5913 5912 5911 5911 5910 5908 5908 5908 5908 5908 5909 5909 5909 5909 5910 5911 5912 5913 5914 5915
5912 5915 5910 5909 5910 5911 5911 5912 5916 5917 5919 5919 5917 5919 5898 5914 5917 5917 5917 5917 5918 5917 5915 5913 5912 5911 5910 5909 5908 5906 5905 5904 5904 5903 5903 5904 5906 5906 5905 5905 5907 5909 5911 5912
5910 5911 5913 5908 5908 5907 5910 5911 5911 5913 5914 5917 5917 5917 5914 5915 5916 5916 5916 5915 5916 5915 5914 5910 5908 5907 5905 5905 5905 5903 5902 5901 5900 5899 5898 5898 5898 5899 5900 5901 5902 5905 5907 5908
5906 5908 5909 5904 5903 5904 5904 5906 5908 5913 5914 5912 5912 5909 5912 5913 5913 5913 5914 5913 5913 5912 5910 5907 5905 5904 5903 5902 5900 5900 5899 5899 5897 5895 5893 5891 5888 5891 5894 5896 5898 5899 5901 5903
5901 5904 5905 5904 5901 5900 5900 5902 5904 5906 5909 5910 5912 5912 5908 5909 5909 5910 5910 5909 5908 5908 5907 5904 5903 5902 5900 5898 5898 5898 5897 5896 5894 5891 5888 5885 5885 5888 5892 5893 5894 5895 5896 5897
5897 5899 5899 5902 5899 5899 5898 5898 5900 5902 5907 5909 5908 5907 5904 5904 5905 5905 5905 5905 5904 5903 5903 5900 5899 5899 5897 5897 5896 5895 5894 5892 5889 5888 5886 5883 5883 5885 5887 5888 5888 5889 5890 5891
5893 5896 5893 5892 5893 5893 5893 5894 5896 5897 5898 5899 5904 5901 5902 5901 5900 5900 5900 5899 5898 5898 5899 5897 5895 5895 5895 5894 5893 5891 5890 5888 5886 5884 5883 5881 5881 5882 5882 5882 5882 5881 5881 5881
5888 5889 5889 5888 5887 5888 5888 5890 5891 5891 5892 5893 5894 5895 5895 5894 5894 5894 5894 5894 5893 5893 5893 5892 5891 5892 5891 5890 5888 5887 5886 5884 5883 5881 5880 5879 5878 5877 5876 5875 5875 5874 5874 5874
5884 5884 5884 5885 5883 5883 5884 5885 5884 5885 5886 5887 5888 5888 5886 5887 5888 5888 5888 5889 5888 5888 5887 5886 5887 5887 5886 5886 5884 5882 5880 5879 5878 5876 5875 5874 5872 5871 5870 5869 5868 5868 5869 5868
5878 5879 5878 5879 5878 5879 5879 5879 5879 5879 5880 5881 5881 5880 5881 5881 5881 5881 5882 5882 5883 5882 5883 5882 5881 5881 5881 5879 5878 5877 5876 5875 5872 5870 5869 5868 5867 5867 5866 5864 5863 5862 5861 5861
5871 5872 5871 5871 5872 5874 5875 5875 5874 5874 5875 5874 5874 5874 5874 5875 5874 5875 5876 5876 5877 5877 5878 5877 5877 5875 5874 5873 5872 5871 5870 5869 5868 5866 5864 5863 5862 5861 5860 5859 5857 5855 5855 5853
5862 5864 5865 5864 5865 5866 5868 5869 5868 5869 5869 5868 5869 5869 5870 5870 5869 5869 5870 5871 5871 5872 5872 5872 5870 5868 5868 5867 5865 5864 5863 5863 5862 5860 5858 5856 5854 5853 5851 5849 5848 5847 5846 5845
5853 5855 5856 5857 5857 5859 5862 5862 5863 5865 5865 5863 5863 5864 5865 5864 5864 5865 5865 5866 5866 5866 5866 5865 5863 5861 5860 5858 5857 5856 5856 5854 5853 5852 5851 5849 5847 5844 5842 5839 5838 5836 5835 5835
5841 5846 5846 5849 5849 5851 5855 5855 5859 5857 5856 5858 5857 5858 5858 5858 5858 5859 5859 5859 5859 5860 5860 5858 5856 5855 5854 5852 5850 5848 5847 5846 5846 5844 5843 5841 5839 5836 5833 5832 5830 5828 5826 5825
5829 5835 5838 5838 5841 5842 5846 5849 5850 5850 5849 5851 5852 5851 5852 5852 5852 5852 5853 5853 5853 5853 5852 5852 5851 5850 5848 5846 5844 5841 5838 5836 5836 5835 5834 5832 5829 5827 5826 5824 5822 5819 5816 5815
5816 5822 5825 5826 5834 5834 5836 5839 5841 5842 5842 5843 5844 5845 5845 5844 5845 5845 5845 5846 5846 5846 5845 5845 5844 5843 5841 5839 5837 5835 5833 5830 5828 5825 5823 5822 5820 5817 5815 5812 5811 5809 5807 5805
5807 5807 5816 5817 5821 5824 5827 5829 5831 5833 5834 5835 5836 5837 5837 5838 5838 5838 5838 5839 5840 5840 5840 5839 5837 5835 5833 5831 5830 5829 5827 5825 5822 5819 5815 5811 5808 5806 5803 5801 5799 5797 5795 5794
5791 5796 5801 5808 5808 5809 5815 5818 5821 5824 5825 5827 5828 5828 5829 5830 5831 5831 5831 5832 5833 5833 5833 5832 5830 5828 5826 5823 5820 5819 5818 5816 5813 5811 5808 5805 5801 5798 5794 5791 5788 5787 5784 5780